User: anonymous   Login
Location: Newark
(39.5667°N, 8.9833°E)
Time: 06:44:04
(UTC+00:00)
Language:

LightSail 2 - Orbit

View from above orbital plane
View from above orbital plane
View from above satellite
View from above satellite

Ground track
Ground track

The orbit data is extracted from the following two-line orbital elements,

1 44420U 19036AC  19287.26001955 +.00005144 +00000-0 +11654-2 0  9991
2 44420 024.0042 226.8039 0011037 291.6540 068.2830 14.53296616014293
Epoch (UTC): 14 October 2019 06:14:25
Eccentricity: 0.0011037
inclination: 24.0042°
perigee height: 707 km
apogee height: 723 km
right ascension of ascending node: 226.8039°
argument of perigee: 291.6540°
revolutions per day: 14.53296616
mean anomaly at epoch: 68.2830°
orbit number at epoch: 1429

The dashed part of the orbit path shows where the satellite is in the earth's shadow,  

DLR